This is the latest recevied weather packets stored in our database for station/object YN8O-13. If no packets are shown the sender has not sent any weather packets the latest 10 day(s).
| Time | Temp. | Humidity | Pressure | Rain* | Wind** | Luminosity | Snow |
|---|---|---|---|---|---|---|---|
| 1778094841 | 32.78° C | 28% | 1011 hPa | 0 mm | - | - | - |
| 1778094241 | 32.78° C | 27% | 1011 hPa | 0 mm | - | - | - |
| 1778093640 | 33.33° C | 27% | 1010 hPa | 0 mm | - | - | - |
| 1778093040 | 32.78° C | 27% | 1011 hPa | 0 mm | - | - | - |
| 1778092440 | 32.78° C | 27% | 1011 hPa | 0 mm | - | - | - |
| 1778091839 | 31.67° C | 31% | 1012 hPa | 0 mm | - | - | - |
| 1778091239 | 31.67° C | 31% | 1012 hPa | 0 mm | - | - | - |
| 1778090639 | 31.67° C | 31% | 1012 hPa | 0 mm | - | - | - |
| 1778090038 | 31.67° C | 30% | 1012 hPa | 0 mm | - | - | - |
| 1778089438 | 31.67° C | 31% | 1012 hPa | 0 mm | - | - | - |
| 1778088837 | 31.67° C | 31% | 1012 hPa | 0 mm | - | - | - |
| 1778088237 | 30° C | 36% | 1013 hPa | 0 mm | - | - | - |
| 1778087637 | 30° C | 36% | 1013 hPa | 0 mm | - | - | - |
| 1778087036 | 30° C | 36% | 1013 hPa | 0 mm | - | - | - |
| 1778086436 | 30° C | 33% | 1013 hPa | 0 mm | - | - | - |
| 1778085836 | 29.44° C | 34% | 1013 hPa | 0 mm | - | - | - |
| 1778085236 | 29.44° C | 34% | 1013 hPa | 0 mm | - | - | - |
| 1778084635 | 29.44° C | 40% | 1014 hPa | 0 mm | - | - | - |
| 1778084035 | 28.89° C | 39% | 1014 hPa | 0 mm | - | - | - |
| 1778083435 | 28.89° C | 39% | 1014 hPa | 0 mm | - | - | - |
| 1778082834 | 28.89° C | 37% | 1014 hPa | 0 mm | - | - | - |
| 1778082234 | 28.33° C | 40% | 1014 hPa | 0 mm | - | - | - |
| 1778081633 | 28.33° C | 40% | 1014 hPa | 0 mm | - | - | - |
| 1778081033 | 27.78° C | 47% | 1014 hPa | 0 mm | - | - | - |
| 1778080433 | 27.22° C | 47% | 1014 hPa | 0 mm | - | - | - |
* Rain latest hour (hover to see other rain measurements)
** Current wind speed in m/s (hover to see current wind gust speed)